Alpena, MI

7:02 AM EST on January 17, 2018 (GMT -0500)
Alpena County Regional

Weather History for KAPN - July, 2014

Change the Weather History Date:

Monday, July 28, 2014

  Actual Average Record
Temperature  
Mean Temperature 59 °F 68 °F  
Max Temperature 65 °F 79 °F 97 °F (1931)
Min Temperature 52 °F 56 °F 44 °F (1978)
Degree Days  
Heating Degree Days 6 1  
Month to date heating degree days 64 38  
Since 1 June heating degree days 176 181  
Since 1 July heating degree days 64 38  
Cooling Degree Days 0 4  
Month to date cooling degree days 50 109  
Year to date cooling degree days 110 178  
Since 1 June cooling degree days 105 165  
Growing Degree Days 8 (Base 50)    
Moisture  
Dew Point 48 °F    
Average Humidity 71    
Maximum Humidity 89    
Minimum Humidity 52    
Precipitation  
Precipitation 0.00 in 0.09 in 0.66 in (1986)
Month to date precipitation 3.66 2.74  
Year to date precipitation 16.34 15.26  
Sea Level Pressure  
Sea Level Pressure 29.93 in    
Wind  
Wind Speed 11 mph (NNW)    
Max Wind Speed 20 mph    
Max Gust Speed 26 mph    
Visibility 10 miles    
Events      
T = Trace of Precipitation, MM = Missing Value Source: NWS Daily Summary

Daily Weather History Graph

Daily Weather History Graph

Search for Another Location

Airport or City:

Trip Planner

Search our weather history database for the weather conditions in past years. The results will help you decide how hot, cold, wet, or windy it might be!

Date:

Astronomy

Jul. 28, 2014 Rise Set
Actual Time 6:14 AM EDT 9:05 PM EDT
Civil Twilight 5:40 AM EDT 9:40 PM EDT
Nautical Twilight 4:56 AM EDT 10:23 PM EDT
Astronomical Twilight 4:05 AM EDT 11:14 PM EDT
Moon 8:02 AM EDT (7/28) 9:38 PM EDT (7/28)
Length of Visible Light 15h 59m
Length of Day
14h 51m
Waxing Crescent, 3% of the Moon is Illuminated
Jul 28
Waxing Crescent
Aug 3
First Quarter
Aug 10
Full
Aug 17
Last Quarter
Aug 25
New

Hourly Weather History & Observations

Time (EDT) Temp. Dew Point Humidity Pressure Visibility Wind Dir Wind Speed Gust Speed Precip Events Conditions
12:54 AM 64.9 °F 55.0 °F 70% 29.81 in 10.0 mi North 13.8 mph - N/A   Overcast
1:54 AM 62.1 °F 54.0 °F 75% 29.83 in 10.0 mi North 17.3 mph - N/A   Mostly Cloudy
2:54 AM 60.1 °F 52.0 °F 75% 29.83 in 10.0 mi NNE 13.8 mph 23.0 mph N/A   Mostly Cloudy
3:54 AM 59.0 °F 52.0 °F 78% 29.84 in 10.0 mi North 11.5 mph - N/A   Overcast
4:54 AM 57.9 °F 51.1 °F 78% 29.87 in 10.0 mi North 13.8 mph - N/A   Overcast
5:24 AM 57.0 °F 51.1 °F 81% 29.87 in 10.0 mi NNE 12.7 mph - N/A   Overcast
5:54 AM 57.0 °F 50.0 °F 77% 29.88 in 10.0 mi North 13.8 mph - N/A   Overcast
6:25 AM 57.0 °F 50.0 °F 77% 29.89 in 10.0 mi North 11.5 mph - N/A   Overcast
6:52 AM 55.4 °F 48.2 °F 77% 29.90 in 10.0 mi North 12.7 mph - N/A   Overcast
6:54 AM 55.9 °F 48.9 °F 77% 29.91 in 10.0 mi North 13.8 mph - N/A   Overcast
7:35 AM 57.0 °F 48.0 °F 72% 29.91 in 10.0 mi North 12.7 mph - N/A   Overcast
7:54 AM 57.0 °F 48.0 °F 72% 29.93 in 10.0 mi North 15.0 mph - N/A   Overcast
8:51 AM 57.2 °F 48.2 °F 72% 29.94 in 10.0 mi North 15.0 mph - N/A   Overcast
8:54 AM 57.0 °F 48.0 °F 72% 29.94 in 10.0 mi North 12.7 mph - N/A   Overcast
9:03 AM 57.0 °F 48.0 °F 72% 29.95 in 10.0 mi North 12.7 mph - N/A   Overcast
9:54 AM 57.2 °F 48.2 °F 72% 29.95 in 10.0 mi North 13.8 mph - N/A   Overcast
10:54 AM 57.0 °F 45.0 °F 64% 29.97 in 10.0 mi North 13.8 mph - N/A   Overcast
11:54 AM 57.0 °F 44.1 °F 62% 29.99 in 10.0 mi NNW 15.0 mph - N/A   Overcast
12:54 PM 59.0 °F 45.0 °F 60% 29.99 in 10.0 mi NNW 12.7 mph 18.4 mph N/A   Overcast
1:54 PM 59.0 °F 46.0 °F 62% 29.99 in 10.0 mi NNW 12.7 mph - N/A   Overcast
2:54 PM 60.1 °F 46.0 °F 60% 29.99 in 10.0 mi North 11.5 mph - N/A   Overcast
3:54 PM 64.0 °F 46.0 °F 52% 29.98 in 10.0 mi NNW 12.7 mph - N/A   Overcast
4:54 PM 64.0 °F 46.0 °F 52% 29.98 in 10.0 mi NNW 17.3 mph 21.9 mph N/A   Mostly Cloudy
5:54 PM 64.4 °F 46.4 °F 52% 29.98 in 10.0 mi NW 11.5 mph - N/A   Mostly Cloudy
6:54 PM 64.0 °F 46.9 °F 54% 29.98 in 10.0 mi NNW 9.2 mph - N/A   Clear
7:54 PM 63.0 °F 46.9 °F 56% 29.98 in 10.0 mi NW 6.9 mph - N/A   Clear
8:54 PM 59.0 °F 48.0 °F 67% 29.98 in 10.0 mi WNW 3.5 mph - N/A   Clear
9:54 PM 54.0 °F 50.0 °F 86% 29.98 in 10.0 mi West 4.6 mph - N/A   Clear
10:54 PM 53.1 °F 48.9 °F 86% 29.98 in 10.0 mi West 3.5 mph - N/A   Clear
11:54 PM 54.0 °F 48.9 °F 83% 29.97 in 10.0 mi West 5.8 mph - N/A   Clear